Change the Weather History Date:

Wednesday, February 27, 2013

  Actual Average Record
Temperature  
Mean Temperature 21 °F -  
Max Temperature 28 °F 31 °F 51 °F (2005)
Min Temperature 14 °F 16 °F -9 °F (1997)
Degree Days  
Heating Degree Days 44    
Moisture  
Dew Point 6 °F    
Average Humidity 48    
Maximum Humidity 62    
Minimum Humidity 24    
Precipitation  
Precipitation 0.00 in 0.05 in - ()
Sea Level Pressure  
Sea Level Pressure 30.07 in    
Wind  
Wind Speed 3 mph ()    
Max Wind Speed 6 mph    
Max Gust Speed -    
Visibility 6.2 miles    
Events      
Averages and records for this station are not official NWS values.
T = Trace of Precipitation, MM = Missing Value Source: Averaged Metar Reports

Daily Weather History Graph

Daily Weather History Graph

Search for Another Location

Airport or City:

Trip Planner

Search our weather history database for the weather conditions in past years. The results will help you decide how hot, cold, wet, or windy it might be!

Date:

Astronomy

Feb. 27, 2013 Rise Set
Actual Time 7:07 AM WGT 5:22 PM WGT
Civil Twilight 6:24 AM WGT 6:05 PM WGT
Nautical Twilight 5:34 AM WGT 6:55 PM WGT
Astronomical Twilight 4:43 AM WGT 7:46 PM WGT
Moon 8:28 PM WGT 6:56 AM WGT
Length of Visible Light 11h 41m
Length of Day
10h 14m
Waning Gibbous, 96% of the Moon is Illuminated
Feb 27
Waning Gibbous
Mar 4
Last Quarter
Mar 11
New
Mar 19
First Quarter
Mar 27
Full

Hourly Weather History & Observations

Time (WGT) Temp. Windchill Dew Point Humidity Pressure Visibility Wind Dir Wind Speed Gust Speed Precip Events Conditions
12:00 AM 20 °F - 7 °F 43% 29.97 in 28 mi East 5.8 mph - -  
3:00 AM 15 °F - 4 °F 49% 30.04 in 31 mi East 2.3 mph - -   Scattered Clouds
5:50 AM 17.6 °F - 3.2 °F 53% 30.06 in 6.2 mi ESE 2.3 mph - N/A   Clear
6:00 AM 15 °F - 1 °F 40% 30.10 in 31 mi SW 2.3 mph - -  
6:50 AM 14.0 °F 8.2 °F 3.2 °F 62% 30.09 in 6.2 mi East 3.5 mph - N/A   Clear
7:50 AM 15.8 °F 10.2 °F 3.2 °F 58% 30.09 in 6.2 mi NE 3.5 mph - N/A   Clear
8:50 AM 15.8 °F 10.2 °F 1.4 °F 53% 30.09 in 6.2 mi WSW 3.5 mph - N/A   Clear
9:00 AM 16 °F - -0 °F 33% 30.11 in 31 mi West 4.6 mph - -  
9:50 AM 15.8 °F - 3.2 °F 58% 30.09 in 6.2 mi ENE 1.2 mph - N/A   Clear
10:50 AM 21.2 °F - 6.8 °F 54% 30.09 in 6.2 mi ESE 2.3 mph - N/A   Clear
11:50 AM 24.8 °F - 6.8 °F 46% 30.06 in 6.2 mi WSW 2.3 mph - N/A   Clear
12:00 PM 24 °F - 2 °F 24% 30.08 in 22 mi WSW 4.6 mph - -  
12:50 PM 28.4 °F 24.6 °F 6.8 °F 40% 30.06 in 6.2 mi WSW 3.5 mph - N/A   Partly Cloudy
1:50 PM 24.8 °F 20.5 °F 10.4 °F 54% 30.04 in 6.2 mi ENE 3.5 mph - N/A   Partly Cloudy
2:50 PM 26.6 °F 22.6 °F 12.2 °F 55% 30.04 in 6.2 mi West 3.5 mph - N/A   Mostly Cloudy
3:00 PM 28 °F - 10 °F 31% 30.05 in 22 mi West 2.3 mph - -  
3:50 PM 24.8 °F - 12.2 °F 59% 30.04 in 6.2 mi ENE 2.3 mph - N/A   Mostly Cloudy
4:50 PM 24.8 °F - 8.6 °F 50% 30.06 in 6.2 mi East 2.3 mph - N/A   Mostly Cloudy
5:50 PM 23.0 °F 18.4 °F 8.6 °F 54% 30.06 in 6.2 mi East 3.5 mph - N/A   Mostly Cloudy
6:00 PM 22 °F - 7 °F 38% 30.08 in 31 mi ENE 3.5 mph - -   Mostly Cloudy
9:00 PM 21 °F - 10 °F 49% 30.11 in 31 mi ENE 2.3 mph - -   Mostly Cloudy